Regional Weather Roundup
Issued by NWS

Home | Current Version | Previous Version | Text Only | Print | Product List | Glossary Off
Versions: 1 2 3 4 5 6 7 8 9 10 11 12 13 14 15 16 17 18 19 20 21 22 23 24 25 26 27 28 29 30 31 32 33 34 35 36 37 38 39 40 41 42 43 44 45 46 47 48 49 50

000
ASUS45 KBOU 251707
RWRCO

WEATHER ROUNDUP FOR COLORADO
NATIONAL WEATHER SERVICE DENVER/BOULDER CO
1100 AM MDT WED MAY 25 2016

NOTE: "FAIR" INDICATES FEW OR NO CLOUDS BELOW 12000 FEET WITH NO
SIGNIFICANT WEATHER AND/OR OBSTRUCTIONS TO VISIBILITY.

COZ001>005-013-030-031-251800-
...NORTHWEST COLORADO...

CITY           SKY/WX    TMP DP  RH WIND       PRES   REMARKS
CRAIG          CLOUDY    57  27  31 SW17G24   30.07S
HAYDEN         FAIR      55  30  38 NW10      30.08R
MEEKER         CLOUDY    60  25  26 W14       30.07S
MOUNT WERNER   NOT AVBL
STEAMBOAT SPGS PTSUNNY   56  30  37 SW13G22   30.08S
WALDEN         FAIR      54  25  32 SW25G32   30.13R
$$

COZ006>008-011-251800-
...WEST CENTRAL VALLEYS...

CITY           SKY/WX    TMP DP  RH WIND       PRES   REMARKS
GRAND JUNCTION FAIR      66  28  24 NW14G20   30.04F
MONTROSE       FAIR      65  17  15 VRB3      30.09F
EAGLE          MOSUNNY   61  23  23 SW10      30.09F
RIFLE          FAIR      65  26  23 W16       30.05F
DELTA          FAIR      68  22  17 SW6       30.07S
NUCLA          FAIR      64  19  17 SW14      30.13F
$$

COZ017>023-064>068-251800-
...SOUTHWEST COLORADO...

CITY           SKY/WX    TMP DP  RH WIND       PRES   REMARKS
DURANGO        FAIR      60  23  24 CALM      30.17F
CORTEZ         FAIR      63  21  20 VRB5G21   30.12F
PAGOSA SPRINGS FAIR      56  16  20 SW6       30.21S
TELLURIDE      FAIR      52   6  15 S6        30.23S
WOLF CREEK PAS FAIR      36  12  38 SW21G31   30.36S
$$

COZ009-010-012-014-032>034-037-058>063-251800-
...CENTRAL COLORADO...

CITY           SKY/WX    TMP DP  RH WIND       PRES   REMARKS
ASPEN          FAIR      58  11  15 W14G23    30.12S
BUENA VISTA    FAIR      60   3  10 W10G35    30.14R
COPPER MTN     NOT AVBL
BERTHOUD PASS  FAIR      32  23  69 NW8G26    30.29R WCI  25
COTTONWOOD PAS FAIR      50  -9   8 SW16G36   30.21S
GUNNISON       FAIR      57  16  19 W7G16     30.17F
KREMMLING      FAIR      59  18  20 W20G30    30.11S
LEADVILLE      FAIR      49   0  13 SW16G32   30.20R
MONARCH PASS   FAIR      36  12  38 W20G32    30.41S
SALIDA         FAIR      63   7  11 W10G18    30.19F
SUNLIGHT       CLOUDY    45  23  42 CALM      30.27S
WILKERSON PASS FAIR      46   9  21 SW9G21    30.28S
$$

COZ069>075-251800-
...SAN LUIS VALLEY/SANGRE DE CRISTO MOUNTAINS...

CITY           SKY/WX    TMP DP  RH WIND       PRES   REMARKS
ALAMOSA        FAIR      60  10  14 VRB7      30.15F
LA VETA PASS   FAIR      50   9  18 SW8G22    30.25R
SAGUACHE       FAIR      59  14  17 SW3       30.16F
$$

COZ035-036-038>040-251800-
...NORTHERN COLORADO FRONT RANGE...

CITY           SKY/WX    TMP DP  RH WIND       PRES   REMARKS
DENVER INTL AP FAIR      64  43  46 E12       30.02F
DMNS CITY PARK   N/A     65  40  39 E12G20    30.01F
AURORA         MOSUNNY   64  43  46 E8        30.03F
FRONT RANGE AP MOSUNNY   63  45  51 NE9       30.03
ERIE MUNI ARPT FAIR      65  39  39 SE8       30.02S
BOULDER MUN AP FAIR      63  37  39 SE5       30.01F
CENTENNIAL     FAIR      63  36  36 E8        30.03F
BROOMFIELD     MOSUNNY   63  39  42 E9        30.04F
FORT COLLINS   FAIR      61  46  59 S12G17    30.02S
LONGMONT       FAIR      67  41  39 S5        30.03F HAZE
$$

COZ041-046-047-076>085-087-088-251800-
...PIKES PEAK/PALMER DIVIDE AND SOUTHERN FOOTHILLS...

CITY           SKY/WX    TMP DP  RH WIND       PRES   REMARKS
COLO. SPRINGS  FAIR      68  19  15 SE8       30.05S
A. F. ACADEMY  FAIR      68  19  15 SW8       30.03F
SCHRIEVER AFB  NOT AVBL
ELLICOTT       FAIR     N/A N/A N/A E9        30.04S
FALCON         FAIR      65  17  15 S9G18     30.08S
FORT CARSON    FAIR      70  26  19 S6        30.01F
LIMON          FAIR      64  50  60 VRB5      30.02S
MONUMENT HILL  FAIR      59  32  36 CALM      30.09S
TRINIDAD       FAIR      72   7   8 NE10G18   30.04R
$$

COZ042>045-048>051-090-091-251800-
...NORTHEAST COLORADO...

CITY           SKY/WX    TMP DP  RH WIND       PRES   REMARKS
GREELEY ARPT   FAIR      66  48  52 S5        30.01F
AKRON          PTSUNNY   63  52  67 CALM      30.00R
BURLINGTON     CLOUDY    64  54  69 N6        29.97S
WRAY           PTSUNNY   70  54  56 SE5       29.96S
STERLING       FAIR      66  55  68 S7        29.96F
HOLYOKE        FAIR      72  54  53 S7        29.96S
FORT MORGAN    FAIR      64  52  65 SE7       30.00S
$$

COZ086-089-092>099-251800-
...SOUTHEAST COLORADO...

CITY           SKY/WX    TMP DP  RH WIND       PRES   REMARKS
PUEBLO         FAIR      76  25  15 CALM      29.97F
LA JUNTA       FAIR      73  47  39 N5        29.98R
LAMAR          FAIR      72  54  53 NE7       29.94S
SPRINGFIELD      N/A     78  22  12 VRB6      29.97R
$$



USA.gov is the U.S. government's official web portal to all federal, state and local government web resources and services.